TimeCST,TemperatureF,Dew PointF,Humidity,Sea Level PressureIn,VisibilityMPH,Wind Direction,Wind SpeedMPH,Gust SpeedMPH,PrecipitationIn,Events,Conditions,WindDirDegrees,DateUTC
12:15 AM,32.0,32.0,100,30.23,7.0,Calm,Calm,-,N/A,,Clear,0,2012-11-30 06:15:00
12:35 AM,32.0,32.0,100,30.23,7.0,Calm,Calm,-,N/A,,Clear,0,2012-11-30 06:35:00
12:55 AM,32.0,32.0,100,30.22,8.0,Calm,Calm,-,N/A,,Clear,0,2012-11-30 06:55:00
1:15 AM,32.0,32.0,100,30.23,6.0,Calm,Calm,-,N/A,,Clear,0,2012-11-30 07:15:00
1:35 AM,32.0,32.0,100,30.22,7.0,Calm,Calm,-,N/A,,Clear,0,2012-11-30 07:35:00
1:55 AM,32.0,32.0,100,30.23,6.0,Calm,Calm,-,N/A,,Clear,0,2012-11-30 07:55:00
2:15 AM,32.0,32.0,100,30.22,6.0,Calm,Calm,-,N/A,,Clear,0,2012-11-30 08:15:00
2:35 AM,32.0,32.0,100,30.22,7.0,Calm,Calm,-,N/A,,Clear,0,2012-11-30 08:35:00
2:55 AM,32.0,32.0,100,30.23,7.0,Calm,Calm,-,N/A,,Clear,0,2012-11-30 08:55:00
3:15 AM,32.0,32.0,100,30.22,8.0,Calm,Calm,-,N/A,,Clear,0,2012-11-30 09:15:00
3:35 AM,32.0,32.0,100,30.22,7.0,Calm,Calm,-,N/A,,Scattered Clouds,0,2012-11-30 09:35:00
3:55 AM,32.0,32.0,100,30.22,7.0,Calm,Calm,-,N/A,,Scattered Clouds,0,2012-11-30 09:55:00
4:15 AM,32.0,32.0,100,30.22,9.0,Calm,Calm,-,N/A,,Clear,0,2012-11-30 10:15:00
4:35 AM,32.0,32.0,100,30.21,7.0,Calm,Calm,-,N/A,,Clear,0,2012-11-30 10:35:00
4:55 AM,32.0,32.0,100,30.21,8.0,Calm,Calm,-,N/A,,Clear,0,2012-11-30 10:55:00
5:15 AM,32.0,32.0,100,30.21,7.0,Calm,Calm,-,N/A,,Clear,0,2012-11-30 11:15:00
5:35 AM,32.0,32.0,100,30.21,7.0,Calm,Calm,-,N/A,,Clear,0,2012-11-30 11:35:00
5:55 AM,32.0,32.0,100,30.21,8.0,Calm,Calm,-,N/A,,Clear,0,2012-11-30 11:55:00
6:15 AM,32.0,32.0,100,30.22,7.0,Calm,Calm,-,N/A,,Scattered Clouds,0,2012-11-30 12:15:00
6:35 AM,32.0,32.0,100,30.22,9.0,Calm,Calm,-,N/A,,Overcast,0,2012-11-30 12:35:00
6:55 AM,33.8,32.0,93,30.22,10.0,Calm,Calm,-,N/A,,Overcast,0,2012-11-30 12:55:00
7:15 AM,33.8,32.0,93,30.22,10.0,Calm,Calm,-,N/A,,Overcast,0,2012-11-30 13:15:00
7:35 AM,33.8,32.0,93,30.22,10.0,Calm,Calm,-,N/A,,Overcast,0,2012-11-30 13:35:00
7:55 AM,35.6,32.0,87,30.22,10.0,Calm,Calm,-,N/A,,Scattered Clouds,0,2012-11-30 13:55:00
8:15 AM,35.6,33.8,93,30.23,9.0,Calm,Calm,-,N/A,,Clear,0,2012-11-30 14:15:00
8:35 AM,35.6,33.8,93,30.23,9.0,Calm,Calm,-,N/A,,Clear,0,2012-11-30 14:35:00
8:55 AM,37.4,33.8,87,30.24,10.0,Calm,Calm,-,N/A,,Clear,0,2012-11-30 14:55:00
9:15 AM,39.2,35.6,87,30.24,10.0,Calm,Calm,-,N/A,,Clear,0,2012-11-30 15:15:00
9:35 AM,39.2,35.6,87,30.24,10.0,Calm,Calm,-,N/A,,Mostly Cloudy,0,2012-11-30 15:35:00
9:55 AM,42.8,35.6,76,30.24,10.0,Calm,Calm,-,N/A,,Overcast,0,2012-11-30 15:55:00
10:15 AM,44.6,37.4,76,30.24,10.0,Calm,Calm,-,N/A,,Overcast,0,2012-11-30 16:15:00
10:35 AM,46.4,39.2,76,30.24,10.0,Calm,Calm,-,N/A,,Overcast,0,2012-11-30 16:35:00
10:55 AM,48.2,37.4,66,30.23,10.0,Calm,Calm,-,N/A,,Overcast,0,2012-11-30 16:55:00
11:15 AM,50.0,37.4,62,30.22,10.0,Calm,Calm,-,N/A,,Overcast,0,2012-11-30 17:15:00
11:35 AM,51.8,37.4,58,30.21,9.0,Calm,Calm,-,N/A,,Overcast,0,2012-11-30 17:35:00
11:55 AM,53.6,39.2,58,30.20,10.0,Calm,Calm,-,N/A,,Overcast,0,2012-11-30 17:55:00
12:15 PM,55.4,41.0,58,30.19,10.0,Calm,Calm,-,N/A,,Overcast,0,2012-11-30 18:15:00
12:35 PM,55.4,41.0,58,30.18,9.0,Calm,Calm,-,N/A,,Overcast,0,2012-11-30 18:35:00
1:15 PM,57.2,42.8,59,30.16,10.0,Calm,Calm,-,N/A,,Overcast,0,2012-11-30 19:15:00
1:35 PM,59.0,44.6,59,30.15,10.0,SSE,6.9,-,N/A,,Overcast,160,2012-11-30 19:35:00
1:55 PM,59.0,44.6,59,30.15,10.0,Calm,Calm,-,N/A,,Overcast,0,2012-11-30 19:55:00
2:15 PM,60.8,44.6,55,30.14,10.0,Calm,Calm,-,N/A,,Overcast,0,2012-11-30 20:15:00
2:35 PM,60.8,44.6,55,30.14,10.0,SSE,3.5,-,N/A,,Overcast,150,2012-11-30 20:35:00
2:55 PM,60.8,46.4,59,30.14,10.0,Calm,Calm,-,N/A,,Overcast,0,2012-11-30 20:55:00
3:15 PM,60.8,46.4,59,30.14,10.0,Calm,Calm,-,N/A,,Partly Cloudy,0,2012-11-30 21:15:00
3:35 PM,59.0,46.4,63,30.14,10.0,East,5.8,-,N/A,,Clear,100,2012-11-30 21:35:00
4:15 PM,59.0,46.4,63,30.14,10.0,Calm,Calm,-,N/A,,Clear,0,2012-11-30 22:15:00
4:35 PM,57.2,46.4,67,30.14,10.0,Calm,Calm,-,N/A,,Clear,0,2012-11-30 22:35:00
4:55 PM,55.4,46.4,72,30.14,10.0,Calm,Calm,-,N/A,,Mostly Cloudy,0,2012-11-30 22:55:00
5:15 PM,53.6,46.4,77,30.14,10.0,Calm,Calm,-,N/A,,Overcast,0,2012-11-30 23:15:00
5:35 PM,53.6,46.4,77,30.14,10.0,Calm,Calm,-,N/A,,Scattered Clouds,0,2012-11-30 23:35:00
5:55 PM,51.8,46.4,82,30.15,10.0,Calm,Calm,-,N/A,,Mostly Cloudy,0,2012-11-30 23:55:00
6:15 PM,51.8,46.4,82,30.15,10.0,Calm,Calm,-,N/A,,Overcast,0,2012-12-01 00:15:00
6:35 PM,51.8,46.4,82,30.16,10.0,Calm,Calm,-,N/A,,Overcast,0,2012-12-01 00:35:00
6:55 PM,53.6,48.2,82,30.16,10.0,Calm,Calm,-,N/A,,Overcast,0,2012-12-01 00:55:00
7:15 PM,51.8,48.2,88,30.16,9.0,Calm,Calm,-,N/A,,Overcast,0,2012-12-01 01:15:00
7:35 PM,53.6,48.2,82,30.16,9.0,Calm,Calm,-,N/A,,Overcast,0,2012-12-01 01:35:00
7:55 PM,51.8,48.2,88,30.15,10.0,Calm,Calm,-,N/A,,Overcast,0,2012-12-01 01:55:00
8:15 PM,51.8,48.2,88,30.15,9.0,Calm,Calm,-,N/A,,Overcast,0,2012-12-01 02:15:00
8:35 PM,51.8,48.2,88,30.15,9.0,Calm,Calm,-,N/A,,Overcast,0,2012-12-01 02:35:00
8:55 PM,51.8,48.2,88,30.16,9.0,Calm,Calm,-,N/A,,Overcast,0,2012-12-01 02:55:00
9:15 PM,53.6,48.2,82,30.15,10.0,Calm,Calm,-,N/A,,Overcast,0,2012-12-01 03:15:00
9:35 PM,53.6,48.2,82,30.15,10.0,Calm,Calm,-,N/A,,Overcast,0,2012-12-01 03:35:00
9:55 PM,53.6,48.2,82,30.16,10.0,Calm,Calm,-,N/A,,Overcast,0,2012-12-01 03:55:00
10:15 PM,51.8,48.2,88,30.16,9.0,Calm,Calm,-,N/A,,Overcast,0,2012-12-01 04:15:00
10:35 PM,53.6,48.2,82,30.16,10.0,Calm,Calm,-,N/A,,Overcast,0,2012-12-01 04:35:00
10:55 PM,53.6,48.2,82,30.16,10.0,Calm,Calm,-,N/A,,Overcast,0,2012-12-01 04:55:00
11:15 PM,53.6,48.2,82,30.15,10.0,Calm,Calm,-,N/A,,Overcast,0,2012-12-01 05:15:00
11:35 PM,53.6,48.2,82,30.15,10.0,Calm,Calm,-,N/A,,Overcast,0,2012-12-01 05:35:00
11:55 PM,53.6,50.0,88,30.15,10.0,Calm,Calm,-,N/A,,Overcast,0,2012-12-01 05:55:00